Time,TemperatureF,DewpointF,PressureIn,WindDirection,WindDirectionDegrees,WindSpeedMPH,WindSpeedGustMPH,Humidity,HourlyPrecipIn,Conditions,Clouds,dailyrainin,SoftwareType,DateUTC
2013-01-31 00:00:00,24.6,16.5,29.91,NW,308,8.0,8.0,71,0.00,,,0.11,Wunderground v.1.15,2013-01-31 06:00:00,
2013-01-31 00:06:00,24.6,16.2,29.91,NW,308,7.0,10.0,70,0.00,,,0.00,Wunderground v.1.15,2013-01-31 06:06:00,
2013-01-31 00:11:00,24.6,16.9,29.91,NW,322,7.0,8.0,72,0.00,,,0.00,Wunderground v.1.15,2013-01-31 06:11:00,
2013-01-31 00:17:00,24.7,16.3,29.91,NNW,327,7.0,10.0,70,0.00,,,0.00,Wunderground v.1.15,2013-01-31 06:17:00,
2013-01-31 00:22:00,24.7,17.0,29.90,NW,309,8.0,12.0,72,0.00,,,0.00,Wunderground v.1.15,2013-01-31 06:22:00,
2013-01-31 00:27:00,24.7,17.3,29.91,NW,316,8.0,12.0,73,0.00,,,0.00,Wunderground v.1.15,2013-01-31 06:27:00,
2013-01-31 00:33:00,24.7,17.0,29.91,NW,323,8.0,22.0,72,0.00,,,0.00,Wunderground v.1.15,2013-01-31 06:33:00,
2013-01-31 00:38:00,24.7,17.3,29.91,NW,319,9.0,22.0,73,0.00,,,0.00,Wunderground v.1.15,2013-01-31 06:38:00,
2013-01-31 00:44:00,24.7,17.6,29.91,WNW,294,9.0,22.0,74,0.00,,,0.00,Wunderground v.1.15,2013-01-31 06:44:00,
2013-01-31 00:50:00,24.7,17.6,29.91,WNW,300,8.0,22.0,74,0.00,,,0.00,Wunderground v.1.15,2013-01-31 06:50:00,
2013-01-31 00:56:00,24.7,17.6,29.91,NNW,331,9.0,22.0,74,0.00,,,0.00,Wunderground v.1.15,2013-01-31 06:56:00,
2013-01-31 01:01:00,24.8,17.7,29.91,WNW,294,10.0,22.0,74,0.00,,,0.00,Wunderground v.1.15,2013-01-31 07:01:00,
2013-01-31 01:07:00,24.8,17.4,29.91,NW,317,10.0,22.0,73,0.00,,,0.00,Wunderground v.1.15,2013-01-31 07:07:00,
2013-01-31 01:13:00,24.8,17.4,29.91,WNW,300,10.0,22.0,73,0.00,,,0.00,Wunderground v.1.15,2013-01-31 07:13:00,
2013-01-31 01:19:00,24.9,17.5,29.91,WNW,301,11.0,22.0,73,0.00,,,0.00,Wunderground v.1.15,2013-01-31 07:19:00,
2013-01-31 01:25:00,24.9,17.1,29.91,WNW,299,11.0,22.0,72,0.00,,,0.00,Wunderground v.1.15,2013-01-31 07:25:00,
2013-01-31 01:31:00,24.9,17.5,29.91,NW,307,11.0,14.0,73,0.00,,,0.00,Wunderground v.1.15,2013-01-31 07:31:00,
2013-01-31 01:37:00,25.0,17.6,29.91,WNW,295,9.0,22.0,73,0.00,,,0.00,Wunderground v.1.15,2013-01-31 07:37:00,
2013-01-31 01:43:00,25.0,17.2,29.92,NW,319,9.0,22.0,72,0.00,,,0.00,Wunderground v.1.15,2013-01-31 07:43:00,
2013-01-31 01:49:00,25.0,16.9,29.92,NW,307,9.0,22.0,71,0.00,,,0.00,Wunderground v.1.15,2013-01-31 07:49:00,
2013-01-31 01:54:00,25.0,16.9,29.92,NW,306,9.0,22.0,71,0.00,,,0.00,Wunderground v.1.15,2013-01-31 07:54:00,
2013-01-31 02:00:00,25.0,16.6,29.92,NW,317,10.0,10.0,70,0.00,,,0.00,Wunderground v.1.15,2013-01-31 08:00:00,
2013-01-31 02:07:00,25.0,16.6,29.92,NW,308,10.0,22.0,70,0.00,,,0.00,Wunderground v.1.15,2013-01-31 08:07:00,
2013-01-31 02:13:00,25.0,16.9,29.92,NW,317,10.0,22.0,71,0.00,,,0.00,Wunderground v.1.15,2013-01-31 08:13:00,
2013-01-31 02:18:00,25.0,16.9,29.91,WNW,300,10.0,22.0,71,0.00,,,0.00,Wunderground v.1.15,2013-01-31 08:18:00,
2013-01-31 02:24:00,25.0,17.6,29.91,WNW,302,11.0,22.0,73,0.00,,,0.00,Wunderground v.1.15,2013-01-31 08:24:00,
2013-01-31 02:30:00,25.0,17.6,29.91,WNW,287,9.0,9.0,73,0.00,,,0.00,Wunderground v.1.15,2013-01-31 08:30:00,
2013-01-31 02:35:00,25.0,17.9,29.91,WNW,302,10.0,22.0,74,0.00,,,0.00,Wunderground v.1.15,2013-01-31 08:35:00,
2013-01-31 02:41:00,25.0,18.2,29.91,NW,319,11.0,22.0,75,0.00,,,0.00,Wunderground v.1.15,2013-01-31 08:41:00,
2013-01-31 02:47:00,24.9,18.1,29.92,NW,319,10.0,22.0,75,0.00,,,0.00,Wunderground v.1.15,2013-01-31 08:47:00,
2013-01-31 02:53:00,24.9,18.1,29.92,NW,305,10.0,22.0,75,0.00,,,0.00,Wunderground v.1.15,2013-01-31 08:53:00,
2013-01-31 02:59:00,25.0,18.5,29.92,NW,309,9.0,22.0,76,0.00,,,0.00,Wunderground v.1.15,2013-01-31 08:59:00,
2013-01-31 03:04:00,25.0,18.5,29.92,NW,325,10.0,22.0,76,0.00,,,0.00,Wunderground v.1.15,2013-01-31 09:04:00,
2013-01-31 03:10:00,25.1,18.9,29.92,NW,315,10.0,22.0,77,0.00,,,0.00,Wunderground v.1.15,2013-01-31 09:10:00,
2013-01-31 03:16:00,25.0,18.8,29.92,NW,319,9.0,22.0,77,0.00,,,0.00,Wunderground v.1.15,2013-01-31 09:16:00,
2013-01-31 03:22:00,25.0,18.8,29.92,NNW,329,8.0,22.0,77,0.00,,,0.00,Wunderground v.1.15,2013-01-31 09:22:00,
2013-01-31 03:28:00,24.9,18.7,29.92,NNW,334,9.0,22.0,77,0.00,,,0.00,Wunderground v.1.15,2013-01-31 09:28:00,
2013-01-31 03:33:00,24.9,18.4,29.92,NW,324,10.0,22.0,76,0.00,,,0.00,Wunderground v.1.15,2013-01-31 09:33:00,
2013-01-31 03:39:00,24.9,18.4,29.92,WNW,297,10.0,22.0,76,0.00,,,0.00,Wunderground v.1.15,2013-01-31 09:39:00,
2013-01-31 03:45:00,24.8,18.3,29.91,NW,323,9.0,22.0,76,0.00,,,0.00,Wunderground v.1.15,2013-01-31 09:45:00,
2013-01-31 03:51:00,24.8,18.0,29.91,NW,314,9.0,22.0,75,0.00,,,0.00,Wunderground v.1.15,2013-01-31 09:51:00,
2013-01-31 03:57:00,24.8,18.3,29.91,NNW,329,9.0,22.0,76,0.00,,,0.00,Wunderground v.1.15,2013-01-31 09:57:00,
2013-01-31 04:03:00,24.7,18.2,29.91,NW,315,9.0,22.0,76,0.00,,,0.00,Wunderground v.1.15,2013-01-31 10:03:00,
2013-01-31 04:09:00,24.7,17.9,29.91,NW,321,11.0,22.0,75,0.00,,,0.00,Wunderground v.1.15,2013-01-31 10:09:00,
2013-01-31 04:15:00,24.6,17.8,29.91,NW,323,10.0,22.0,75,0.00,,,0.00,Wunderground v.1.15,2013-01-31 10:15:00,
2013-01-31 04:22:00,24.6,17.5,29.91,NW,319,9.0,22.0,74,0.00,,,0.00,Wunderground v.1.15,2013-01-31 10:22:00,
2013-01-31 04:28:00,24.7,17.6,29.91,NW,324,9.0,22.0,74,0.00,,,0.00,Wunderground v.1.15,2013-01-31 10:28:00,
2013-01-31 04:33:00,24.7,17.6,29.92,West,281,10.0,22.0,74,0.00,,,0.00,Wunderground v.1.15,2013-01-31 10:33:00,
2013-01-31 04:39:00,24.7,17.6,29.92,NW,307,10.0,22.0,74,0.00,,,0.00,Wunderground v.1.15,2013-01-31 10:39:00,
2013-01-31 04:45:00,24.6,17.5,29.92,WNW,303,10.0,22.0,74,0.00,,,0.00,Wunderground v.1.15,2013-01-31 10:45:00,
2013-01-31 04:51:00,24.5,17.4,29.92,NW,322,10.0,22.0,74,0.00,,,0.00,Wunderground v.1.15,2013-01-31 10:51:00,
2013-01-31 04:56:00,24.4,17.3,29.92,NW,310,10.0,22.0,74,0.00,,,0.00,Wunderground v.1.15,2013-01-31 10:56:00,
2013-01-31 05:02:00,24.2,16.8,29.93,NW,305,10.0,22.0,73,0.00,,,0.00,Wunderground v.1.15,2013-01-31 11:02:00,
2013-01-31 05:08:00,23.9,16.5,29.93,NW,325,10.0,22.0,73,0.00,,,0.00,Wunderground v.1.15,2013-01-31 11:08:00,
2013-01-31 05:14:00,23.6,16.2,29.93,NW,306,9.0,22.0,73,0.00,,,0.00,Wunderground v.1.15,2013-01-31 11:14:00,
2013-01-31 05:20:00,23.2,15.8,29.93,NW,310,10.0,22.0,73,0.00,,,0.00,Wunderground v.1.15,2013-01-31 11:20:00,
2013-01-31 05:26:00,22.9,15.5,29.93,NW,322,10.0,22.0,73,0.00,,,0.00,Wunderground v.1.15,2013-01-31 11:26:00,
2013-01-31 05:32:00,22.7,15.3,29.93,NNW,340,10.0,22.0,73,0.00,,,0.00,Wunderground v.1.15,2013-01-31 11:32:00,
2013-01-31 05:37:00,22.6,15.6,29.94,NW,325,9.0,22.0,74,0.00,,,0.00,Wunderground v.1.15,2013-01-31 11:37:00,
2013-01-31 05:43:00,22.6,15.9,29.94,NW,319,9.0,22.0,75,0.00,,,0.00,Wunderground v.1.15,2013-01-31 11:43:00,
2013-01-31 05:49:00,22.5,15.8,29.94,NW,320,8.0,22.0,75,0.00,,,0.00,Wunderground v.1.15,2013-01-31 11:49:00,
2013-01-31 05:55:00,22.5,15.8,29.93,WNW,284,7.0,22.0,75,0.00,,,0.00,Wunderground v.1.15,2013-01-31 11:55:00,
2013-01-31 06:00:00,22.4,15.7,29.93,NW,323,7.0,22.0,75,0.00,,,0.00,Wunderground v.1.15,2013-01-31 12:00:00,
2013-01-31 06:06:00,22.3,15.6,29.93,NNW,335,7.0,22.0,75,0.00,,,0.00,Wunderground v.1.15,2013-01-31 12:06:00,
2013-01-31 06:12:00,22.2,15.8,29.94,NW,323,7.0,22.0,76,0.00,,,0.00,Wunderground v.1.15,2013-01-31 12:12:00,
2013-01-31 06:18:00,22.1,15.4,29.94,North,11,8.0,22.0,75,0.00,,,0.00,Wunderground v.1.15,2013-01-31 12:18:00,
2013-01-31 06:23:00,22.0,14.7,29.94,NW,305,9.0,22.0,73,0.00,,,0.00,Wunderground v.1.15,2013-01-31 12:23:00,
2013-01-31 06:29:00,22.0,15.0,29.95,North,9,8.0,22.0,74,0.00,,,0.00,Wunderground v.1.15,2013-01-31 12:29:00,
2013-01-31 06:35:00,21.9,15.2,29.95,NNW,336,6.0,22.0,75,0.00,,,0.00,Wunderground v.1.15,2013-01-31 12:35:00,
2013-01-31 06:41:00,21.8,14.8,29.95,NNW,340,6.0,22.0,74,0.00,,,0.00,Wunderground v.1.15,2013-01-31 12:41:00,
2013-01-31 06:46:00,21.8,15.1,29.96,WNW,295,6.0,22.0,75,0.00,,,0.00,Wunderground v.1.15,2013-01-31 12:46:00,
2013-01-31 06:53:00,21.7,14.7,29.96,NNE,30,6.0,22.0,74,0.00,,,0.00,Wunderground v.1.15,2013-01-31 12:53:00,
2013-01-31 06:59:00,21.7,14.7,29.96,WNW,298,6.0,22.0,74,0.00,,,0.00,Wunderground v.1.15,2013-01-31 12:59:00,
2013-01-31 07:04:00,21.6,14.3,29.97,NE,55,5.0,22.0,73,0.00,,,0.00,Wunderground v.1.15,2013-01-31 13:04:00,
2013-01-31 07:10:00,21.5,13.5,29.97,NW,319,6.0,22.0,71,0.00,,,0.00,Wunderground v.1.15,2013-01-31 13:10:00,
2013-01-31 07:16:00,21.4,13.5,29.97,WNW,296,7.0,22.0,71,0.00,,,0.00,Wunderground v.1.15,2013-01-31 13:16:00,
2013-01-31 07:22:00,21.3,13.7,29.97,WNW,284,5.0,22.0,72,0.00,,,0.00,Wunderground v.1.15,2013-01-31 13:22:00,
2013-01-31 07:27:00,21.2,13.6,29.98,WNW,296,5.0,22.0,72,0.00,,,0.00,Wunderground v.1.15,2013-01-31 13:27:00,
2013-01-31 07:33:00,21.2,13.6,29.98,NE,54,5.0,22.0,72,0.00,,,0.00,Wunderground v.1.15,2013-01-31 13:33:00,
2013-01-31 07:39:00,21.0,13.4,29.98,North,355,5.0,22.0,72,0.00,,,0.00,Wunderground v.1.15,2013-01-31 13:39:00,
2013-01-31 07:45:00,20.9,13.0,29.98,WNW,302,5.0,22.0,71,0.00,,,0.00,Wunderground v.1.15,2013-01-31 13:45:00,
2013-01-31 07:50:00,20.9,13.3,29.98,West,271,5.0,5.0,72,0.00,,,0.00,Wunderground v.1.15,2013-01-31 13:50:00,
2013-01-31 07:56:00,20.6,12.0,29.99,NW,319,7.0,22.0,69,0.00,,,0.00,Wunderground v.1.15,2013-01-31 13:56:00,
2013-01-31 08:02:00,20.3,12.1,29.99,NW,306,8.0,22.0,70,0.00,,,0.00,Wunderground v.1.15,2013-01-31 14:02:00,
2013-01-31 08:08:00,20.2,12.3,30.00,SW,236,6.0,22.0,71,0.00,,,0.00,Wunderground v.1.15,2013-01-31 14:08:00,
2013-01-31 08:14:00,20.2,12.6,30.00,West,277,6.0,22.0,72,0.00,,,0.00,Wunderground v.1.15,2013-01-31 14:14:00,
2013-01-31 08:19:00,20.2,12.6,30.00,NNW,344,5.0,22.0,72,0.00,,,0.00,Wunderground v.1.15,2013-01-31 14:19:00,
2013-01-31 08:25:00,20.0,12.4,30.00,NW,309,6.0,22.0,72,0.00,,,0.00,Wunderground v.1.15,2013-01-31 14:25:00,
2013-01-31 08:31:00,20.0,12.4,30.00,NNE,22,5.0,22.0,72,0.00,,,0.00,Wunderground v.1.15,2013-01-31 14:31:00,
2013-01-31 08:37:00,20.1,12.8,30.01,WNW,286,6.0,22.0,73,0.00,,,0.00,Wunderground v.1.15,2013-01-31 14:37:00,
2013-01-31 08:43:00,20.1,12.5,30.01,NE,53,5.0,22.0,72,0.00,,,0.00,Wunderground v.1.15,2013-01-31 14:43:00,
2013-01-31 08:48:00,20.1,12.8,30.01,WSW,250,5.0,22.0,73,0.00,,,0.00,Wunderground v.1.15,2013-01-31 14:48:00,
2013-01-31 08:54:00,20.1,12.8,30.02,NNE,33,5.0,22.0,73,0.00,,,0.00,Wunderground v.1.15,2013-01-31 14:54:00,
2013-01-31 09:00:00,20.0,12.7,30.02,South,182,5.0,22.0,73,0.00,,,0.00,Wunderground v.1.15,2013-01-31 15:00:00,
2013-01-31 09:05:00,20.0,12.4,30.03,East,92,5.0,22.0,72,0.00,,,0.00,Wunderground v.1.15,2013-01-31 15:05:00,
2013-01-31 09:11:00,20.0,12.7,30.03,ENE,77,6.0,22.0,73,0.00,,,0.00,Wunderground v.1.15,2013-01-31 15:11:00,
2013-01-31 09:16:00,20.2,12.9,30.03,WNW,298,6.0,22.0,73,0.00,,,0.00,Wunderground v.1.15,2013-01-31 15:16:00,
2013-01-31 09:22:00,20.3,12.7,30.04,NW,306,7.0,22.0,72,0.00,,,0.00,Wunderground v.1.15,2013-01-31 15:22:00,
2013-01-31 09:28:00,20.7,13.1,30.04,NW,321,6.0,22.0,72,0.00,,,0.00,Wunderground v.1.15,2013-01-31 15:28:00,
2013-01-31 09:34:00,20.4,12.5,30.04,NE,55,5.0,22.0,71,0.00,,,0.00,Wunderground v.1.15,2013-01-31 15:34:00,
2013-01-31 09:39:00,20.4,12.5,30.04,ENE,69,6.0,22.0,71,0.00,,,0.00,Wunderground v.1.15,2013-01-31 15:39:00,
2013-01-31 09:45:00,20.5,12.6,30.05,WNW,292,5.0,22.0,71,0.00,,,0.00,Wunderground v.1.15,2013-01-31 15:45:00,
2013-01-31 09:51:00,20.3,12.1,30.05,SSW,200,6.0,22.0,70,0.00,,,0.00,Wunderground v.1.15,2013-01-31 15:51:00,
2013-01-31 09:56:00,20.4,10.8,30.05,NE,40,6.0,22.0,66,0.00,,,0.00,Wunderground v.1.15,2013-01-31 15:56:00,
2013-01-31 10:01:00,20.8,11.2,30.06,East,93,5.0,22.0,66,0.00,,,0.00,Wunderground v.1.15,2013-01-31 16:01:00,
2013-01-31 10:07:00,20.6,10.3,30.06,WSW,255,6.0,22.0,64,0.00,,,0.00,Wunderground v.1.15,2013-01-31 16:07:00,
2013-01-31 10:13:00,20.6,10.3,30.06,West,265,6.0,22.0,64,0.00,,,0.00,Wunderground v.1.15,2013-01-31 16:13:00,
2013-01-31 10:19:00,20.4,9.8,30.07,ENE,69,7.0,22.0,63,0.00,,,0.00,Wunderground v.1.15,2013-01-31 16:19:00,
2013-01-31 10:25:00,20.1,10.6,30.07,WNW,296,8.0,22.0,66,0.00,,,0.00,Wunderground v.1.15,2013-01-31 16:25:00,
2013-01-31 10:32:00,20.2,10.3,30.07,East,93,8.0,22.0,65,0.00,,,0.00,Wunderground v.1.15,2013-01-31 16:32:00,
2013-01-31 10:38:00,20.1,9.5,30.07,WSW,246,7.0,22.0,63,0.00,,,0.00,Wunderground v.1.15,2013-01-31 16:38:00,
2013-01-31 10:43:00,19.9,9.3,30.07,SSE,154,7.0,22.0,63,0.00,,,0.00,Wunderground v.1.15,2013-01-31 16:43:00,
2013-01-31 10:48:00,20.0,9.4,30.08,ESE,108,7.0,22.0,63,0.00,,,0.00,Wunderground v.1.15,2013-01-31 16:48:00,
2013-01-31 10:54:00,20.3,9.7,30.08,SW,222,7.0,22.0,63,0.00,,,0.00,Wunderground v.1.15,2013-01-31 16:54:00,
2013-01-31 10:59:00,20.7,10.4,30.08,ESE,114,6.0,22.0,64,0.00,,,0.00,Wunderground v.1.15,2013-01-31 16:59:00,
2013-01-31 11:05:00,20.8,10.5,30.08,NW,309,6.0,22.0,64,0.00,,,0.00,Wunderground v.1.15,2013-01-31 17:05:00,
2013-01-31 11:11:00,20.6,10.3,30.09,SE,140,7.0,22.0,64,0.00,,,0.00,Wunderground v.1.15,2013-01-31 17:11:00,
2013-01-31 11:17:00,20.6,9.6,30.08,East,84,7.0,22.0,62,0.00,,,0.00,Wunderground v.1.15,2013-01-31 17:17:00,
2013-01-31 11:23:00,20.1,9.5,30.08,ENE,58,9.0,22.0,63,0.00,,,0.00,Wunderground v.1.15,2013-01-31 17:23:00,
2013-01-31 11:28:00,20.2,9.6,30.08,NNE,31,9.0,22.0,63,0.00,,,0.00,Wunderground v.1.15,2013-01-31 17:28:00,
2013-01-31 11:34:00,20.7,10.4,30.08,NNW,327,6.0,22.0,64,0.00,,,0.00,Wunderground v.1.15,2013-01-31 17:34:00,
2013-01-31 11:39:00,20.6,10.0,30.08,East,99,6.0,22.0,63,0.00,,,0.00,Wunderground v.1.15,2013-01-31 17:39:00,
2013-01-31 11:45:00,20.8,10.5,30.08,ESE,105,6.0,22.0,64,0.00,,,0.00,Wunderground v.1.15,2013-01-31 17:45:00,
2013-01-31 11:51:00,19.9,9.7,30.09,NE,34,7.0,22.0,64,0.00,,,0.00,Wunderground v.1.15,2013-01-31 17:51:00,
2013-01-31 11:57:00,19.7,10.2,30.08,NE,42,7.0,22.0,66,0.00,,,0.00,Wunderground v.1.15,2013-01-31 17:57:00,
2013-01-31 12:02:00,19.8,10.6,30.08,ENE,57,7.0,22.0,67,0.00,,,0.00,Wunderground v.1.15,2013-01-31 18:02:00,
2013-01-31 12:08:00,20.2,11.3,30.08,WSW,241,6.0,22.0,68,0.00,,,0.00,Wunderground v.1.15,2013-01-31 18:08:00,
2013-01-31 12:14:00,20.3,11.1,30.08,NE,38,6.0,22.0,67,0.00,,,0.00,Wunderground v.1.15,2013-01-31 18:14:00,
2013-01-31 12:20:00,19.8,10.6,30.08,ESE,103,7.0,7.0,67,0.00,,,0.00,Wunderground v.1.15,2013-01-31 18:20:00,
2013-01-31 12:25:00,19.9,10.4,30.09,NE,49,7.0,22.0,66,0.00,,,0.00,Wunderground v.1.15,2013-01-31 18:25:00,
2013-01-31 12:31:00,19.6,9.4,30.09,East,80,6.0,22.0,64,0.00,,,0.00,Wunderground v.1.15,2013-01-31 18:31:00,
2013-01-31 12:37:00,19.4,8.8,30.08,NW,313,7.0,22.0,63,0.00,,,0.00,Wunderground v.1.15,2013-01-31 18:37:00,
2013-01-31 12:43:00,19.1,8.9,30.10,SSW,211,7.0,22.0,64,0.00,,,0.00,Wunderground v.1.15,2013-01-31 18:43:00,
2013-01-31 12:49:00,18.2,6.6,30.11,ENE,71,7.0,22.0,60,0.00,,,0.00,Wunderground v.1.15,2013-01-31 18:49:00,
2013-01-31 12:55:00,17.5,6.0,30.11,ENE,59,8.0,22.0,60,0.00,,,0.00,Wunderground v.1.15,2013-01-31 18:55:00,
2013-01-31 13:01:00,17.3,6.1,30.10,ENE,74,8.0,22.0,61,0.00,,,0.00,Wunderground v.1.15,2013-01-31 19:01:00,
2013-01-31 13:08:00,16.9,6.1,30.10,ENE,70,10.0,22.0,62,0.00,,,0.00,Wunderground v.1.15,2013-01-31 19:08:00,
2013-01-31 13:14:00,16.8,6.7,30.11,ESE,123,10.0,22.0,64,0.00,,,0.00,Wunderground v.1.15,2013-01-31 19:14:00,
2013-01-31 13:20:00,17.0,6.6,30.11,ENE,64,8.0,8.0,63,0.00,,,0.00,Wunderground v.1.15,2013-01-31 19:20:00,
2013-01-31 13:26:00,17.3,6.8,30.12,East,99,9.0,22.0,63,0.00,,,0.00,Wunderground v.1.15,2013-01-31 19:26:00,
2013-01-31 13:31:00,17.2,6.4,30.12,WNW,303,10.0,22.0,62,0.00,,,0.00,Wunderground v.1.15,2013-01-31 19:31:00,
2013-01-31 13:37:00,17.0,6.6,30.13,ENE,76,9.0,22.0,63,0.00,,,0.00,Wunderground v.1.15,2013-01-31 19:37:00,
2013-01-31 13:43:00,17.1,5.9,30.12,NW,325,8.0,22.0,61,0.00,,,0.00,Wunderground v.1.15,2013-01-31 19:43:00,
2013-01-31 13:49:00,17.8,6.2,30.13,NNW,342,9.0,22.0,60,0.00,,,0.00,Wunderground v.1.15,2013-01-31 19:49:00,
2013-01-31 13:54:00,18.0,6.8,30.13,NW,319,9.0,22.0,61,0.00,,,0.00,Wunderground v.1.15,2013-01-31 19:54:00,
2013-01-31 14:00:00,17.9,6.3,30.13,ESE,117,10.0,10.0,60,0.00,,,0.00,Wunderground v.1.15,2013-01-31 20:00:00,
2013-01-31 14:06:00,18.0,6.8,30.14,NNE,22,9.0,22.0,61,0.00,,,0.00,Wunderground v.1.15,2013-01-31 20:06:00,
2013-01-31 14:12:00,17.6,6.8,30.15,NE,43,8.0,22.0,62,0.00,,,0.00,Wunderground v.1.15,2013-01-31 20:12:00,
2013-01-31 14:18:00,16.8,6.0,30.15,NE,42,10.0,22.0,62,0.00,,,0.00,Wunderground v.1.15,2013-01-31 20:18:00,
2013-01-31 14:23:00,16.3,5.9,30.15,NE,53,13.0,22.0,63,0.00,,,0.00,Wunderground v.1.15,2013-01-31 20:23:00,
2013-01-31 14:29:00,16.0,6.0,30.16,NE,51,13.0,22.0,64,0.00,,,0.00,Wunderground v.1.15,2013-01-31 20:29:00,
2013-01-31 14:35:00,16.2,6.1,30.16,NNE,32,12.0,22.0,64,0.00,,,0.00,Wunderground v.1.15,2013-01-31 20:35:00,
2013-01-31 14:41:00,16.4,7.0,30.17,SE,126,10.0,22.0,66,0.00,,,0.00,Wunderground v.1.15,2013-01-31 20:41:00,
2013-01-31 14:46:00,16.6,6.9,30.17,NNE,33,6.0,22.0,65,0.00,,,0.00,Wunderground v.1.15,2013-01-31 20:46:00,
2013-01-31 14:52:00,16.2,6.1,30.17,NNW,340,7.0,22.0,64,0.00,,,0.00,Wunderground v.1.15,2013-01-31 20:52:00,
2013-01-31 14:58:00,15.8,5.8,30.18,SSW,194,9.0,22.0,64,0.00,,,0.00,Wunderground v.1.15,2013-01-31 20:58:00,
2013-01-31 15:04:00,15.7,6.0,30.18,NE,48,8.0,22.0,65,0.00,,,0.00,Wunderground v.1.15,2013-01-31 21:04:00,
2013-01-31 15:10:00,15.5,5.5,30.18,ESE,104,8.0,8.0,64,0.00,,,0.00,Wunderground v.1.15,2013-01-31 21:10:00,
2013-01-31 15:16:00,15.6,5.2,30.19,NNE,23,7.0,22.0,63,0.00,,,0.00,Wunderground v.1.15,2013-01-31 21:16:00,
2013-01-31 15:22:00,15.2,5.9,30.19,WNW,299,8.0,22.0,66,0.00,,,0.00,Wunderground v.1.15,2013-01-31 21:22:00,
2013-01-31 15:27:00,15.0,5.7,30.19,East,88,7.0,22.0,66,0.00,,,0.00,Wunderground v.1.15,2013-01-31 21:27:00,
2013-01-31 15:33:00,14.8,5.2,30.20,ENE,57,8.0,22.0,65,0.00,,,0.00,Wunderground v.1.15,2013-01-31 21:33:00,
2013-01-31 15:39:00,14.8,5.5,30.20,ENE,59,9.0,22.0,66,0.00,,,0.00,Wunderground v.1.15,2013-01-31 21:39:00,
2013-01-31 15:45:00,14.9,5.6,30.20,SSW,196,8.0,22.0,66,0.00,,,0.00,Wunderground v.1.15,2013-01-31 21:45:00,
2013-01-31 15:51:00,14.7,5.1,30.20,ENE,68,7.0,22.0,65,0.00,,,0.00,Wunderground v.1.15,2013-01-31 21:51:00,
2013-01-31 15:57:00,14.9,5.9,30.20,NE,45,6.0,22.0,67,0.00,,,0.00,Wunderground v.1.15,2013-01-31 21:57:00,
2013-01-31 16:03:00,15.2,5.2,30.20,West,279,6.0,22.0,64,0.00,,,0.00,Wunderground v.1.15,2013-01-31 22:03:00,
2013-01-31 16:09:00,15.6,4.9,30.21,WNW,294,6.0,22.0,62,0.00,,,0.00,Wunderground v.1.15,2013-01-31 22:09:00,
2013-01-31 16:15:00,15.4,5.0,30.21,NNE,31,6.0,22.0,63,0.00,,,0.00,Wunderground v.1.15,2013-01-31 22:15:00,
2013-01-31 16:21:00,15.3,5.3,30.21,North,5,7.0,22.0,64,0.00,,,0.00,Wunderground v.1.15,2013-01-31 22:21:00,
2013-01-31 16:27:00,15.4,5.0,30.21,NNE,32,7.0,22.0,63,0.00,,,0.00,Wunderground v.1.15,2013-01-31 22:27:00,
2013-01-31 16:32:00,15.4,5.4,30.21,ESE,121,5.0,22.0,64,0.00,,,0.00,Wunderground v.1.15,2013-01-31 22:32:00,
2013-01-31 16:38:00,15.1,5.4,30.22,East,88,6.0,22.0,65,0.00,,,0.00,Wunderground v.1.15,2013-01-31 22:38:00,
2013-01-31 16:44:00,14.9,4.9,30.22,WNW,298,7.0,22.0,64,0.00,,,0.00,Wunderground v.1.15,2013-01-31 22:44:00,
2013-01-31 16:50:00,14.9,4.6,30.22,SSE,161,8.0,8.0,63,0.00,,,0.00,Wunderground v.1.15,2013-01-31 22:50:00,
2013-01-31 16:55:00,14.6,4.3,30.23,ESE,103,6.0,22.0,63,0.00,,,0.00,Wunderground v.1.15,2013-01-31 22:55:00,
2013-01-31 17:01:00,14.1,3.8,30.23,East,84,7.0,22.0,63,0.00,,,0.00,Wunderground v.1.15,2013-01-31 23:01:00,
2013-01-31 17:07:00,13.9,4.3,30.23,SE,126,8.0,22.0,65,0.00,,,0.00,Wunderground v.1.15,2013-01-31 23:07:00,
2013-01-31 17:13:00,13.7,4.4,30.24,NNE,29,8.0,22.0,66,0.00,,,0.00,Wunderground v.1.15,2013-01-31 23:13:00,
2013-01-31 17:18:00,13.5,4.6,30.24,NE,53,7.0,22.0,67,0.00,,,0.00,Wunderground v.1.15,2013-01-31 23:18:00,
2013-01-31 17:24:00,13.5,5.2,30.24,NNW,327,7.0,22.0,69,0.00,,,0.00,Wunderground v.1.15,2013-01-31 23:24:00,
2013-01-31 17:30:00,13.3,4.7,30.25,NE,47,7.0,22.0,68,0.00,,,0.00,Wunderground v.1.15,2013-01-31 23:30:00,
2013-01-31 17:36:00,12.6,3.4,30.26,NE,49,9.0,22.0,66,0.00,,,0.00,Wunderground v.1.15,2013-01-31 23:36:00,
2013-01-31 17:41:00,12.1,2.9,30.26,NE,52,9.0,22.0,66,0.00,,,0.00,Wunderground v.1.15,2013-01-31 23:41:00,
2013-01-31 17:47:00,11.6,2.4,30.26,NE,42,10.0,22.0,66,0.00,,,0.00,Wunderground v.1.15,2013-01-31 23:47:00,
2013-01-31 17:53:00,11.3,2.1,30.27,ENE,57,10.0,22.0,66,0.00,,,0.00,Wunderground v.1.15,2013-01-31 23:53:00,
2013-01-31 17:59:00,11.1,1.9,30.27,NE,55,9.0,22.0,66,0.00,,,0.00,Wunderground v.1.15,2013-01-31 23:59:00,
2013-01-31 18:04:00,11.0,2.5,30.28,SE,137,7.0,22.0,68,0.00,,,0.00,Wunderground v.1.15,2013-02-01 00:04:00,
2013-01-31 18:10:00,10.9,2.1,30.28,SE,127,7.0,7.0,67,0.00,,,0.00,Wunderground v.1.15,2013-02-01 00:10:00,
2013-01-31 18:15:00,10.8,1.7,30.29,NNE,26,7.0,22.0,66,0.00,,,0.00,Wunderground v.1.15,2013-02-01 00:15:00,
2013-01-31 18:21:00,10.7,1.6,30.29,NNW,337,7.0,22.0,66,0.00,,,0.00,Wunderground v.1.15,2013-02-01 00:21:00,
2013-01-31 18:26:00,10.7,1.6,30.30,NE,36,8.0,22.0,66,0.00,,,0.00,Wunderground v.1.15,2013-02-01 00:26:00,
2013-01-31 18:32:00,10.4,1.0,30.30,NNW,329,9.0,11.0,65,0.00,,,0.00,Wunderground v.1.15,2013-02-01 00:32:00,
2013-01-31 18:38:00,10.3,1.5,30.30,ENE,65,8.0,22.0,67,0.00,,,0.00,Wunderground v.1.15,2013-02-01 00:38:00,
2013-01-31 18:44:00,10.0,0.6,30.31,ESE,109,8.0,22.0,65,0.00,,,0.00,Wunderground v.1.15,2013-02-01 00:44:00,
2013-01-31 18:50:00,10.0,1.2,30.31,East,82,6.0,22.0,67,0.00,,,0.00,Wunderground v.1.15,2013-02-01 00:50:00,
2013-01-31 18:56:00,9.9,1.1,30.32,SE,126,6.0,22.0,67,0.00,,,0.00,Wunderground v.1.15,2013-02-01 00:56:00,
2013-01-31 19:02:00,9.8,0.4,30.32,East,98,7.0,22.0,65,0.00,,,0.00,Wunderground v.1.15,2013-02-01 01:02:00,
2013-01-31 19:08:00,9.6,-0.1,30.32,NNW,336,7.0,22.0,64,0.00,,,0.00,Wunderground v.1.15,2013-02-01 01:08:00,
2013-01-31 19:13:00,9.5,-0.2,30.32,NNE,19,7.0,22.0,64,0.00,,,0.00,Wunderground v.1.15,2013-02-01 01:13:00,
2013-01-31 19:19:00,9.3,-0.4,30.33,ENE,59,7.0,22.0,64,0.00,,,0.00,Wunderground v.1.15,2013-02-01 01:19:00,
2013-01-31 19:25:00,9.2,-0.5,30.33,NE,40,8.0,22.0,64,0.00,,,0.00,Wunderground v.1.15,2013-02-01 01:25:00,
2013-01-31 19:31:00,9.1,-0.3,30.33,East,91,7.0,22.0,65,0.00,,,0.00,Wunderground v.1.15,2013-02-01 01:31:00,
2013-01-31 19:37:00,8.9,-1.1,30.34,WNW,298,8.0,22.0,63,0.00,,,0.00,Wunderground v.1.15,2013-02-01 01:37:00,
2013-01-31 19:43:00,8.8,-0.9,30.34,SSE,159,8.0,22.0,64,0.00,,,0.00,Wunderground v.1.15,2013-02-01 01:43:00,
2013-01-31 19:49:00,8.7,-0.7,30.34,ESE,102,7.0,22.0,65,0.00,,,0.00,Wunderground v.1.15,2013-02-01 01:49:00,
2013-01-31 19:55:00,8.6,-0.4,30.35,North,360,7.0,22.0,66,0.00,,,0.00,Wunderground v.1.15,2013-02-01 01:55:00,
2013-01-31 20:00:00,8.6,-0.4,30.35,NW,306,5.0,22.0,66,0.00,,,0.00,Wunderground v.1.15,2013-02-01 02:00:00,
2013-01-31 20:06:00,8.5,-0.5,30.35,WNW,297,6.0,22.0,66,0.00,,,0.00,Wunderground v.1.15,2013-02-01 02:06:00,
2013-01-31 20:12:00,8.5,-0.9,30.35,ENE,63,7.0,22.0,65,0.00,,,0.00,Wunderground v.1.15,2013-02-01 02:12:00,
2013-01-31 20:18:00,8.3,-0.7,30.36,SW,227,6.0,22.0,66,0.00,,,0.00,Wunderground v.1.15,2013-02-01 02:18:00,
2013-01-31 20:24:00,8.3,-0.4,30.36,East,85,5.0,22.0,67,0.00,,,0.00,Wunderground v.1.15,2013-02-01 02:24:00,
2013-01-31 20:30:00,8.3,-0.4,30.36,SW,230,4.0,22.0,67,0.00,,,0.00,Wunderground v.1.15,2013-02-01 02:30:00,
2013-01-31 20:36:00,8.2,-0.2,30.37,ESE,116,5.0,22.0,68,0.00,,,0.00,Wunderground v.1.15,2013-02-01 02:36:00,
2013-01-31 20:42:00,8.3,0.2,30.37,ESE,103,5.0,22.0,69,0.00,,,0.00,Wunderground v.1.15,2013-02-01 02:42:00,
2013-01-31 20:48:00,8.2,-0.2,30.37,NE,47,6.0,22.0,68,0.00,,,0.00,Wunderground v.1.15,2013-02-01 02:48:00,
2013-01-31 20:54:00,8.2,-0.2,30.37,ENE,71,6.0,22.0,68,0.00,,,0.00,Wunderground v.1.15,2013-02-01 02:54:00,
2013-01-31 21:00:00,8.1,-0.3,30.38,NW,308,5.0,22.0,68,0.00,,,0.00,Wunderground v.1.15,2013-02-01 03:00:00,
2013-01-31 21:06:00,8.1,0.0,30.38,NW,307,4.0,22.0,69,0.00,,,0.00,Wunderground v.1.15,2013-02-01 03:06:00,
2013-01-31 21:12:00,8.0,-0.1,30.39,SSW,196,4.0,22.0,69,0.00,,,0.00,Wunderground v.1.15,2013-02-01 03:12:00,
2013-01-31 21:18:00,8.0,-0.1,30.39,NW,305,5.0,22.0,69,0.00,,,0.00,Wunderground v.1.15,2013-02-01 03:18:00,
2013-01-31 21:24:00,8.0,-0.1,30.39,NW,304,5.0,22.0,69,0.00,,,0.00,Wunderground v.1.15,2013-02-01 03:24:00,
2013-01-31 21:29:00,7.9,-0.2,30.39,NNE,26,6.0,22.0,69,0.00,,,0.00,Wunderground v.1.15,2013-02-01 03:29:00,
2013-01-31 21:35:00,7.8,-0.3,30.39,North,349,6.0,22.0,69,0.00,,,0.00,Wunderground v.1.15,2013-02-01 03:35:00,
2013-01-31 21:41:00,7.7,-1.0,30.39,SE,139,6.0,22.0,67,0.00,,,0.00,Wunderground v.1.15,2013-02-01 03:41:00,
2013-01-31 21:47:00,7.6,-0.8,30.40,SE,144,5.0,22.0,68,0.00,,,0.00,Wunderground v.1.15,2013-02-01 03:47:00,
2013-01-31 21:52:00,7.6,-0.8,30.40,NNW,330,4.0,22.0,68,0.00,,,0.00,Wunderground v.1.15,2013-02-01 03:52:00,
2013-01-31 21:58:00,7.6,-0.5,30.40,SSW,198,4.0,22.0,69,0.00,,,0.00,Wunderground v.1.15,2013-02-01 03:58:00,
2013-01-31 22:04:00,7.5,-0.9,30.40,East,79,5.0,22.0,68,0.00,,,0.00,Wunderground v.1.15,2013-02-01 04:04:00,
2013-01-31 22:10:00,7.5,-0.9,30.40,SW,236,5.0,5.0,68,0.00,,,0.00,Wunderground v.1.15,2013-02-01 04:10:00,
2013-01-31 22:15:00,7.6,-0.5,30.41,NW,320,4.0,22.0,69,0.00,,,0.00,Wunderground v.1.15,2013-02-01 04:15:00,
2013-01-31 22:21:00,7.5,-0.6,30.41,West,274,5.0,22.0,69,0.00,,,0.00,Wunderground v.1.15,2013-02-01 04:21:00,
2013-01-31 22:27:00,7.4,-1.0,30.41,NW,321,7.0,22.0,68,0.00,,,0.00,Wunderground v.1.15,2013-02-01 04:27:00,
2013-01-31 22:32:00,7.3,-1.1,30.41,NW,313,6.0,22.0,68,0.00,,,0.00,Wunderground v.1.15,2013-02-01 04:32:00,
2013-01-31 22:38:00,7.4,-0.6,30.41,ESE,111,5.0,22.0,69,0.00,,,0.00,Wunderground v.1.15,2013-02-01 04:38:00,
2013-01-31 22:44:00,7.3,-0.7,30.42,WNW,284,6.0,22.0,69,0.00,,,0.00,Wunderground v.1.15,2013-02-01 04:44:00,
2013-01-31 22:50:00,7.3,-0.7,30.42,NW,321,5.0,22.0,69,0.00,,,0.00,Wunderground v.1.15,2013-02-01 04:50:00,
2013-01-31 22:55:00,7.2,-1.2,30.42,NE,43,6.0,22.0,68,0.00,,,0.00,Wunderground v.1.15,2013-02-01 04:55:00,
2013-01-31 23:00:00,7.2,-0.8,30.42,NW,312,6.0,22.0,69,0.00,,,0.00,Wunderground v.1.15,2013-02-01 05:00:00,
2013-01-31 23:02:00,7.2,-0.8,30.42,NNW,343,6.0,22.0,69,0.00,,,0.00,Wunderground v.1.15,2013-02-01 05:02:00,
2013-01-31 23:03:00,7.1,-0.9,30.42,NW,307,6.0,22.0,69,0.00,,,0.00,Wunderground v.1.15,2013-02-01 05:03:00,
2013-01-31 23:06:00,7.1,-0.9,30.42,NW,325,6.0,22.0,69,0.00,,,0.00,Wunderground v.1.15,2013-02-01 05:06:00,
2013-01-31 23:12:00,7.1,-0.9,30.43,North,355,7.0,22.0,69,0.00,,,0.00,Wunderground v.1.15,2013-02-01 05:12:00,
2013-01-31 23:18:00,7.1,-1.2,30.43,WNW,302,8.0,22.0,68,0.00,,,0.00,Wunderground v.1.15,2013-02-01 05:18:00,
2013-01-31 23:24:00,7.0,-1.7,30.43,WNW,296,8.0,22.0,67,0.00,,,0.00,Wunderground v.1.15,2013-02-01 05:24:00,
2013-01-31 23:29:00,6.9,-1.4,30.44,NW,318,8.0,22.0,68,0.00,,,0.00,Wunderground v.1.15,2013-02-01 05:29:00,
2013-01-31 23:35:00,6.9,-1.1,30.44,NW,306,7.0,22.0,69,0.00,,,0.00,Wunderground v.1.15,2013-02-01 05:35:00,
2013-01-31 23:41:00,6.9,-1.1,30.44,NW,315,6.0,22.0,69,0.00,,,0.00,Wunderground v.1.15,2013-02-01 05:41:00,
2013-01-31 23:46:00,6.8,-1.2,30.45,NW,307,6.0,22.0,69,0.00,,,0.00,Wunderground v.1.15,2013-02-01 05:46:00,
2013-01-31 23:51:00,6.8,-1.2,30.45,NE,43,6.0,22.0,69,0.00,,,0.00,Wunderground v.1.15,2013-02-01 05:51:00,
2013-01-31 23:57:00,6.8,-1.2,30.46,NW,320,6.0,22.0,69,0.00,,,0.00,Wunderground v.1.15,2013-02-01 05:57:00,